| time (UTC) | temp F | wind direction | speed MPH | gust MPH | rain 1hr in | rain 24hr in | rain mn in | humidity % | barometer mb |
| 20260506001509 | 62 | 200 | 2.0 | 4.0 | 0.00 | 0.08 | 0.01 | 69 | 1003.4 |
| 20260506000013 | 62 | 176 | 1.0 | 4.0 | 0.00 | 0.08 | 0.01 | 70 | 1003.4 |
| 20260505234508 | 62 | 184 | 3.0 | 5.0 | 0.00 | 0.08 | 0.01 | 70 | 1003.5 |
| 20260505233008 | 63 | 152 | 2.0 | 7.0 | 0.00 | 0.08 | 0.01 | 70 | 1003.2 |
| 20260505231509 | 63 | 176 | 2.0 | 5.0 | 0.00 | 0.08 | 0.01 | 70 | 1002.9 |
| 20260505230004 | 63 | 195 | 2.0 | 6.0 | 0.00 | 0.08 | 0.01 | 70 | 1002.9 |
| 20260505224503 | 63 | 185 | 2.0 | 7.0 | 0.00 | 0.08 | 0.01 | 70 | 1002.7 |
| 20260505223001 | 63 | 190 | 3.0 | 6.0 | 0.00 | 0.08 | 0.01 | 69 | 1002.7 |
| 20260505221601 | 63 | 180 | 3.0 | 7.0 | 0.00 | 0.08 | 0.01 | 69 | 1002.6 |
| 20260505221502 | 63 | 181 | 3.0 | 7.0 | 0.00 | 0.08 | 0.01 | 69 | 1002.6 |
| 20260505220100 | 62 | 198 | 3.0 | 10.0 | 0.00 | 0.08 | 0.01 | 70 | 1002.9 |
| 20260505214632 | 62 | 132 | 6.0 | 13.0 | 0.00 | 0.08 | 0.01 | 70 | 1003.0 |
| 20260505213059 | 62 | 184 | 3.0 | 6.0 | 0.00 | 0.08 | 0.01 | 68 | 1003.0 |
| 20260505211555 | 62 | 180 | 4.0 | 8.0 | 0.01 | 0.08 | 0.01 | 69 | 1002.9 |
| 20260505210053 | 62 | 137 | 6.0 | 11.0 | 0.01 | 0.08 | 0.01 | 69 | 1003.4 |
| 20260505204550 | 62 | 244 | 8.0 | 21.0 | 0.01 | 0.08 | 0.01 | 69 | 1002.9 |
| 20260505203044 | 65 | 24 | 7.0 | 16.0 | 0.01 | 0.08 | 0.01 | 68 | 1002.4 |
| 20260505201549 | 70 | 319 | 11.0 | 25.0 | 0.00 | 0.07 | 0.00 | 54 | 1001.5 |
| 20260505200038 | 75 | 176 | 3.0 | 14.0 | 0.00 | 0.07 | 0.00 | 43 | 1001.0 |
| 20260505194538 | 75 | 165 | 7.0 | 17.0 | 0.00 | 0.07 | 0.00 | 42 | 1000.5 |
| 20260505193034 | 74 | 178 | 11.0 | 25.0 | 0.00 | 0.07 | 0.00 | 42 | 1000.4 |
| 20260505191532 | 75 | 189 | 13.0 | 21.0 | 0.00 | 0.07 | 0.00 | 41 | 1000.7 |
| 20260505190035 | 72 | 146 | 5.0 | 18.0 | 0.00 | 0.07 | 0.00 | 49 | 1000.8 |
| 20260505184526 | 74 | 211 | 7.0 | 14.0 | 0.00 | 0.07 | 0.00 | 43 | 1001.3 |
| 20260505183023 | 74 | 222 | 12.0 | 25.0 | 0.00 | 0.07 | 0.00 | 42 | 1001.3 |
| 20260505181520 | 75 | 155 | 13.0 | 25.0 | 0.00 | 0.07 | 0.00 | 41 | 1001.2 |
| 20260505180017 | 74 | 221 | 11.0 | 20.0 | 0.00 | 0.07 | 0.00 | 43 | 1001.0 |
| 20260505174516 | 76 | 222 | 8.0 | 24.0 | 0.00 | 0.07 | 0.00 | 39 | 1000.9 |
| 20260505173014 | 77 | 197 | 9.0 | 18.0 | 0.00 | 0.07 | 0.00 | 39 | 1001.1 |
| 20260505171512 | 76 | 173 | 11.0 | 27.0 | 0.00 | 0.07 | 0.00 | 39 | 1000.9 |
| 20260505170016 | 76 | 191 | 9.0 | 27.0 | 0.00 | 0.07 | 0.00 | 36 | 1001.1 |
| 20260505164507 | 77 | 207 | 13.0 | 27.0 | 0.00 | 0.07 | 0.00 | 36 | 1001.4 |
| 20260505163010 | 76 | 187 | 14.0 | 25.0 | 0.00 | 0.07 | 0.00 | 38 | 1001.4 |
| 20260505161626 | 75 | 191 | 10.0 | 25.0 | 0.00 | 0.07 | 0.00 | 39 | 1001.7 |
| 20260505161502 | 75 | 189 | 11.0 | 26.0 | 0.00 | 0.07 | 0.00 | 40 | 1001.7 |
| 20260505153052 | 74 | 207 | 13.0 | 24.0 | 0.00 | 0.07 | 0.07 | 44 | 1002.0 |
| 20260505151547 | 73 | 185 | 8.0 | 19.0 | 0.00 | 0.07 | 0.07 | 47 | 1002.1 |
| 20260505124527 | 64 | 206 | 10.0 | 23.0 | 0.00 | 0.07 | 0.07 | 59 | 1003.9 |
| 20260505123027 | 65 | 223 | 11.0 | 16.0 | 0.00 | 0.07 | 0.07 | 58 | 1003.5 |
| 20260505121528 | 64 | 186 | 5.0 | 20.0 | 0.00 | 0.07 | 0.07 | 63 | 1003.5 |
| 20260505120051 | 63 | 202 | 7.0 | 16.0 | 0.00 | 0.07 | 0.07 | 63 | 1003.6 |
| 20260505114523 | 61 | 181 | 8.0 | 12.0 | 0.00 | 0.07 | 0.07 | 68 | 1003.7 |
| 20260505113021 | 57 | 174 | 4.0 | 7.0 | 0.00 | 0.07 | 0.07 | 61 | 1003.8 |
| 20260505111551 | 53 | 153 | 2.0 | 5.0 | 0.00 | 0.07 | 0.07 | 21 | 1003.8 |
| 20260505101542 | 51 | 277 | 0.0 | 0.0 | 0.00 | 0.07 | 0.07 | 31 | 1003.2 |
| 20260505100041 | 51 | 277 | 0.0 | 0.0 | 0.00 | 0.07 | 0.07 | 33 | 1003.1 |
| 20260505094536 | 51 | 277 | 0.0 | 0.0 | 0.02 | 0.07 | 0.07 | 37 | 1003.3 |
| 20260505093037 | 52 | 332 | 1.0 | 2.0 | 0.07 | 0.07 | 0.07 | 42 | 1003.3 |
| 20260505091531 | 53 | 216 | 0.0 | 2.0 | 0.07 | 0.07 | 0.07 | 51 | 1003.1 |
| 20260505090038 | 54 | 181 | 0.0 | 3.0 | 0.07 | 0.07 | 0.07 | 66 | 1003.2 |
| 20260505084521 | 57 | 217 | 1.0 | 6.0 | 0.05 | 0.05 | 0.05 | 68 | 1003.6 |
| 20260505083018 | 57 | 355 | 0.0 | 0.0 | 0.00 | 0.00 | 0.00 | 62 | 1003.1 |
| 20260505081517 | 58 | 143 | 0.0 | 1.0 | 0.00 | 0.00 | 0.00 | 59 | 1003.1 |
| 20260505080016 | 58 | 163 | 1.0 | 5.0 | 0.00 | 0.00 | 0.00 | 58 | 1003.3 |
| 20260505074514 | 58 | 132 | 2.0 | 6.0 | 0.00 | 0.00 | 0.00 | 57 | 1003.4 |
| 20260505073024 | 58 | 175 | 4.0 | 8.0 | 0.00 | 0.00 | 0.00 | 58 | 1003.2 |
| 20260505071517 | 58 | 181 | 3.0 | 8.0 | 0.00 | 0.00 | 0.00 | 57 | 1003.2 |
| 20260505070013 | 58 | 195 | 3.0 | 8.0 | 0.00 | 0.00 | 0.00 | 56 | 1003.0 |
| 20260505064543 | 58 | 162 | 3.0 | 8.0 | 0.00 | 0.00 | 0.00 | 56 | 1003.2 |
| 20260505063040 | 58 | 171 | 5.0 | 8.0 | 0.00 | 0.00 | 0.00 | 56 | 1003.3 |
| 20260505061524 | 58 | 204 | 3.0 | 9.0 | 0.00 | 0.00 | 0.00 | 56 | 1003.3 |
| 20260505060008 | 58 | 188 | 5.0 | 10.0 | 0.00 | 0.00 | 0.00 | 56 | 1003.3 |
| 20260505054506 | 58 | 173 | 4.0 | 6.0 | 0.00 | 0.00 | 0.00 | 56 | 1003.3 |
| 20260505053005 | 58 | 176 | 4.0 | 8.0 | 0.00 | 0.00 | 0.00 | 56 | 1003.4 |
| 20260505051506 | 59 | 170 | 5.0 | 9.0 | 0.00 | 0.00 | 0.00 | 55 | 1003.4 |
| 20260505041601 | 59 | 154 | 4.0 | 9.0 | 0.00 | 0.00 | 0.00 | 53 | 1003.4 |
| 20260505040101 | 59 | 192 | 3.0 | 7.0 | 0.00 | 0.00 | 0.00 | 52 | 1003.4 |
| 20260505034600 | 59 | 178 | 3.0 | 8.0 | 0.00 | 0.00 | 0.00 | 52 | 1003.3 |
| 20260505033056 | 59 | 196 | 4.0 | 9.0 | 0.00 | 0.00 | 0.00 | 51 | 1003.2 |
| 20260505031609 | 58 | 163 | 4.0 | 7.0 | 0.00 | 0.00 | 0.00 | 53 | 1003.3 |
| 20260505030054 | 58 | 163 | 4.0 | 7.0 | 0.00 | 0.00 | 0.00 | 54 | 1003.5 |
| 20260505024559 | 57 | 171 | 2.0 | 7.0 | 0.00 | 0.00 | 0.00 | 55 | 1003.5 |
| 20260505023102 | 57 | 144 | 2.0 | 5.0 | 0.00 | 0.00 | 0.00 | 54 | 1003.6 |
| 20260505021547 | 58 | 138 | 1.0 | 3.0 | 0.00 | 0.00 | 0.00 | 53 | 1003.7 |
| 20260505020044 | 58 | 150 | 1.0 | 3.0 | 0.00 | 0.00 | 0.00 | 52 | 1003.6 |
| 20260505014544 | 59 | 150 | 0.0 | 3.0 | 0.00 | 0.00 | 0.00 | 51 | 1003.8 |
| 20260505013040 | 59 | 144 | 1.0 | 3.0 | 0.00 | 0.00 | 0.00 | 50 | 1003.7 |
| 20260505011540 | 59 | 144 | 1.0 | 5.0 | 0.00 | 0.00 | 0.00 | 50 | 1003.6 |
| 20260505010038 | 59 | 157 | 1.0 | 3.0 | 0.00 | 0.00 | 0.00 | 49 | 1003.5 |
| 20260505004546 | 59 | 142 | 1.0 | 3.0 | 0.00 | 0.00 | 0.00 | 49 | 1003.3 |
| 20260505003032 | 61 | 156 | 0.0 | 1.0 | 0.00 | 0.00 | 0.00 | 48 | 1003.3 |